Prescott, AZ

10:01 AM MST on December 14, 2019 (GMT -0700)
Love

Weather History for KPRC - October, 2019

Change the Weather History Date:

Thursday, October 17, 2019

  Actual Average Record
Temperature  
Mean Temperature 62 °F 56 °F  
Max Temperature 76 °F 71 °F 86 °F (2009)
Min Temperature 48 °F 41 °F 27 °F (1998)
Degree Days  
Heating Degree Days 3    
Month to date heating degree days 104  
Since 1 July heating degree days 131  
Cooling Degree Days 0    
Month to date cooling degree days 0  
Year to date cooling degree days 1130  
Growing Degree Days 12 (Base 50)    
Moisture  
Dew Point 33 °F    
Average Humidity 35    
Maximum Humidity 54    
Minimum Humidity 20    
Precipitation  
Precipitation 0.00 in 0.03 in 0.71 in (1972)
Month to date precipitation 0.00 0.54  
Year to date precipitation 10.29 11.71  
Sea Level Pressure  
Sea Level Pressure 29.72 in    
Wind  
Wind Speed 7 mph ()    
Max Wind Speed 26 mph    
Max Gust Speed 34 mph    
Visibility 9.5 miles    
Events      
T = Trace of Precipitation, MM = Missing Value Source: Averaged Metar Reports

Daily Weather History Graph

Daily Weather History Graph

Search for Another Location

Airport or City:

Astronomy

Oct. 17, 2019 Rise Set
Actual Time 6:36 AM MST 5:52 PM MST
Civil Twilight 6:11 AM MST 6:18 PM MST
Nautical Twilight 5:42 AM MST 6:47 PM MST
Astronomical Twilight 5:12 AM MST 7:16 PM MST
Moon 8:34 PM MST (10/17) 10:05 AM MST (10/17)
Length of Visible Light 12h 06m
Length of Day
11h 15m
Waning Gibbous, 86% of the Moon is Illuminated
Oct 17
Waning Gibbous
Oct 21
Last Quarter
Oct 27
New
Nov 4
First Quarter
Nov 12
Full

Hourly Weather History & Observations

Time (MST) Temp. Dew Point Humidity Pressure Visibility Wind Dir Wind Speed Gust Speed Precip Events Conditions
12:53 AM 51.1 °F 32.0 °F 48% 29.84 in 6.0 mi SSW 4.6 mph - N/A   Haze
1:53 AM 51.1 °F 30.9 °F 46% 29.83 in 7.0 mi South 4.6 mph - N/A   Clear
2:53 AM 51.1 °F 28.9 °F 43% 29.81 in 8.0 mi SSW 5.8 mph - N/A   Clear
3:53 AM 50.0 °F 30.9 °F 48% 29.80 in 9.0 mi South 5.8 mph - N/A   Clear
4:53 AM 48.9 °F 30.9 °F 50% 29.80 in 8.0 mi South 4.6 mph - N/A   Clear
5:53 AM 50.0 °F 30.9 °F 48% 29.80 in 10.0 mi South 5.8 mph - N/A   Clear
6:53 AM 48.9 °F 32.0 °F 52% 29.83 in 9.0 mi SSW 5.8 mph - N/A   Clear
7:53 AM 60.1 °F 34.0 °F 38% 29.81 in 10.0 mi South 4.6 mph - N/A   Clear
8:53 AM 66.9 °F 32.0 °F 27% 29.81 in 10.0 mi SE 9.2 mph - N/A   Clear
9:53 AM 71.1 °F 35.1 °F 27% 29.78 in 10.0 mi SSE 8.1 mph 18.4 mph N/A   Clear
10:53 AM 73.9 °F 32.0 °F 21% 29.77 in 10.0 mi SSW 13.8 mph 20.7 mph N/A   Clear
11:53 AM 73.9 °F 30.9 °F 21% 29.75 in 10.0 mi South 18.4 mph 26.5 mph N/A   Clear
12:53 PM 75.0 °F 35.1 °F 23% 29.72 in 10.0 mi SSW 12.7 mph 24.2 mph N/A   Clear
1:53 PM 75.0 °F 34.0 °F 22% 29.69 in 10.0 mi South 16.1 mph 27.6 mph N/A   Clear
2:53 PM 73.9 °F 36.0 °F 25% 29.68 in 10.0 mi SSW 15.0 mph 26.5 mph N/A   Clear
3:53 PM 73.0 °F 36.0 °F 26% 29.65 in 10.0 mi South 18.4 mph 31.1 mph N/A   Clear
4:53 PM 71.1 °F 35.1 °F 27% 29.65 in 10.0 mi South 12.7 mph 26.5 mph N/A   Clear
5:53 PM 68.0 °F 34.0 °F 28% 29.65 in 10.0 mi South 12.7 mph 20.7 mph N/A   Clear
6:53 PM 66.0 °F 36.0 °F 33% 29.67 in 10.0 mi SSW 9.2 mph - N/A   Clear
7:53 PM 64.0 °F 37.0 °F 37% 29.62 in 10.0 mi South 8.1 mph - N/A   Clear
8:53 PM 63.0 °F 35.1 °F 35% 29.60 in 10.0 mi SE 4.6 mph - N/A   Clear
9:53 PM 63.0 °F 34.0 °F 34% 29.61 in 10.0 mi SSW 8.1 mph - N/A   Clear
10:53 PM 60.1 °F 33.1 °F 36% 29.61 in 10.0 mi SSW 9.2 mph - N/A   Clear
11:53 PM 59.0 °F 37.0 °F 44% 29.58 in 10.0 mi SSW 18.4 mph 24.2 mph N/A   Clear